Location: Three Forks Visitor's Center
(58.3672°N, 155.3776°W)
Time: 13:53:55
(UTC-08:00)

OTV 5 (USA 277) - Visible Passes

Search period start: 25 April 2018 00:00
Search period end: 05 May 2018 00:00
Orbit: 308 x 325 km, 54.5° (Epoch: 24 April)

Date Brightness Start Highest point End Pass type
(mag) Time Alt. Az. Time Alt. Az. Time Alt. Az.
25 Apr ? 23:59:51 10° WSW 00:02:15 28° SSW 00:02:42 26° S visible
27 Apr ? 00:14:23 10° WSW 00:16:31 20° SSW 00:16:31 20° SSW visible
27 Apr ? 22:54:28 10° WSW 22:56:57 31° SSW 22:59:25 10° SE visible
28 Apr ? 00:29:12 10° WSW 00:30:20 14° SW 00:30:20 14° SW visible
28 Apr ? 23:08:56 10° WSW 23:11:14 24° SSW 23:13:17 12° SE visible
29 Apr ? 23:23:33 10° WSW 23:25:27 17° SSW 23:27:05 11° SSE visible
30 Apr ? 23:38:45 10° SW 23:39:35 11° SW 23:40:25 10° SSW visible
